PDT,Max TemperatureF,Mean TemperatureF,Min TemperatureF,Max Dew PointF,MeanDew PointF,Min DewpointF,Max Humidity, Mean Humidity, Min Humidity, Max Sea Level PressureIn, Mean Sea Level PressureIn, Min Sea Level PressureIn, Max VisibilityMiles, Mean VisibilityMiles, Min VisibilityMiles, Max Wind SpeedMPH, Mean Wind SpeedMPH, Max Gust SpeedMPH,PrecipitationIn, CloudCover, Events, WindDirDegrees
2014-4-1,58,52,46,47,43,41,82,72,61,29.95,29.89,29.85,10,9,2,30,13,36,0.69,7,Rain,158
2014-4-2,61,53,45,45,43,39,89,68,46,30.12,30.03,29.88,10,10,10,21,8,28,T,4,Rain,357
2014-4-3,62,54,46,46,44,42,86,69,51,30.13,30.10,30.05,10,10,10,16,8,20,0.00,5,,211
2014-4-4,61,56,50,49,46,43,86,71,55,30.06,30.02,29.99,10,9,4,22,8,28,0.32,6,Rain,292
2014-4-5,65,56,46,49,46,43,86,71,56,30.20,30.13,30.06,10,10,10,17,7,21,0.00,2,,292
2014-4-6,72,61,49,54,50,45,93,71,49,30.25,30.18,30.11,10,10,10,16,5,29,0.00,2,,275
2014-4-7,79,65,51,56,52,47,86,62,37,30.16,30.11,30.06,10,10,10,15,6,20,0.00,0,,291
2014-4-8,78,67,56,56,53,50,93,70,46,30.12,30.07,30.03,10,10,10,16,6,20,0.00,3,,299
2014-4-9,66,59,52,52,49,48,93,75,56,30.11,30.06,30.00,10,10,10,17,8,49,0.00,4,,295
2014-4-10,74,63,51,54,50,47,89,71,53,30.05,29.99,29.90,10,10,8,18,7,26,0.00,5,,302
2014-4-11,63,58,53,50,49,48,89,75,60,29.97,29.92,29.87,10,10,10,24,9,28,0.00,7,,298
2014-4-12,64,59,54,48,47,45,77,69,60,29.96,29.92,29.88,10,10,10,21,11,28,0.00,5,,262
2014-4-13,69,61,53,51,48,45,83,69,55,30.06,30.01,29.96,10,10,8,22,9,25,0.00,4,,262
2014-4-14,68,59,50,52,49,48,89,73,56,30.13,30.07,30.03,10,9,6,21,8,23,0.00,5,,283
2014-4-15,66,59,52,49,48,46,83,70,56,30.08,30.00,29.92,10,10,7,18,8,30,0.00,4,,275
2014-4-16,73,62,50,50,49,45,83,64,44,29.93,29.89,29.83,10,9,7,18,8,24,0.00,2,,257
2014-4-17,64,58,51,51,49,47,89,75,60,29.89,29.85,29.81,10,10,7,17,7,29,0.00,2,,262
2014-4-18,64,58,51,51,48,45,83,70,56,29.97,29.92,29.88,10,10,10,18,8,31,0.00,3,,263
2014-4-19,65,59,52,52,48,44,86,69,52,30.13,30.07,29.97,10,10,10,25,12,38,0.00,5,,262
2014-4-20,76,63,50,52,48,44,86,60,33,30.16,30.11,30.07,10,10,10,21,6,36,0.00,3,,269
2014-4-21,67,59,50,50,46,41,83,63,43,30.09,30.04,29.99,10,10,8,24,9,41,0.00,5,,275
2014-4-22,65,59,52,50,42,36,83,60,37,30.14,30.06,29.98,10,10,4,31,19,36,T,5,Rain,287
2014-4-23,67,56,45,49,41,35,72,56,39,30.16,30.12,30.09,10,10,10,24,9,33,0.00,3,,299
2014-4-24,66,59,51,54,51,47,86,71,56,30.13,30.07,30.00,10,10,6,21,9,36,0.02,5,Rain,268
2014-4-25,58,55,52,55,49,43,86,74,61,29.99,29.88,29.81,10,8,2,28,12,35,0.57,8,Rain,253
2014-4-26,63,53,44,44,42,39,86,63,44,30.10,29.99,29.87,10,10,10,25,10,30,0.00,4,,280
2014-4-27,64,58,52,49,46,43,66,57,48,30.14,30.09,30.05,10,10,7,24,13,30,T,5,Rain,234
2014-4-28,71,59,47,49,46,43,93,67,40,30.23,30.19,30.15,10,10,8,20,7,28,0.00,1,,287
2014-4-29,83,67,50,56,47,43,80,52,24,30.21,30.14,30.05,10,10,10,13,4,17,0.00,2,,254
2014-4-30,89,73,57,56,50,42,80,53,25,30.09,30.05,30.00,10,10,10,13,5,20,0.00,2,,280